Погода в Чагыле

Погода в Чагыле : погода сейчас, прогноз погоды и архив. Всё, что Вы хотите узнать о погоде в Чагыле!

Хотите узнать прогноз погоды в Чагыле? Тогда Вам сюда: Погода в Чагыле

Поиск расширенной информации на нашем сайте:

Другие новости

Новости СМИ2

Главная страница сайта

Новости сайта

03.07.2017

Напоминаем, что на нашем специализированном сайте Метеоцентр.Азия вы можете получить высокодетализированные автоматические прогнозы погоды по пунктам России, СНГ и мира в авиационном формате (включающие направление и скорость ветра, видимость, явления погоды, количество и форму облачности, нижнюю и верхнюю границу облачности).


Погода в Чагыле - сегодня

Время (UTC), дата Ветер
(°,м/с) 
Видим.   Явления Облачность Т
(°С)
Тd
(°С)
f(%) Тe
(°С)
Pmin
(гПа)
dP
(гПа)
Po
(мм)
O2
(г/м3)
Тmin Tmax R s Состояние
почвы
06 18.11.18 тихо ()   20000 м    3/0 верхняя 
[Ci fib]
+6.6 -7.4 36 +7  1024.8  -0.2  758  299  +1.4         
09 18.11.18 тихо ()   20000 м    9/0 средняя 
[Ac trans]
+12.3 -3.8 32 +12  1023.4  -1.1  757  292           
12 18.11.18 тихо ()   20000 м    9/9 600 м кучево-дожд. 
[Cb cap]
+12.5 -0.7 40 +13  1022.4  -0.9  756  292           
15 18.11.18 тихо ()   20000 м    9/9 600 м кучево-дожд. 
[Cb cap]
+10.7 +2.5 57 +11  1022.5  756  293    +12.8       
18 18.11.18 тихо ()   20000 м    10/10 600 м кучево-дожд. 
[Cb cap]
+9.8 +5.1 73 +10  1022.3  -0.3  756  293    +12.8       
21 18.11.18 тихо ()   20000 м    10/10 600 м кучево-дожд. 
[Cb cap]
+9.3 +5.1 75 +9  1022.2  -0.1  756  294           
00 19.11.18 тихо ()   20000 м    10/10 600 м кучево-дожд. 
[Cb cap]
+5.9 +1.9 75 +6  1022.9  0.5  756  298           
03 19.11.18 070 (В) 20000 м    6/0 средняя 
[Ac trans]
+0.9 -2.7 77 1023.5  0.4  757  304           
06 19.11.18 тихо ()   20000 м    ясно 
+4.4 -0.4 71 +4  1024.5  1.1  758  300  +0.9    0.6     
09 19.11.18 290 (З) 20000 м    9/0 средняя 
[Ac trans]
+10.2 -1.7 43 +10  1024.2  758  294           
12 19.11.18 270 (З) 20000 м    9/0 кучево-дожд. 
[Cb cap]
+10.4 +1.5 54 +10  1024.5  0.4  758  294           
15 19.11.18 270 (З) 20000 м    9/9 1000 м кучево-дожд. 
[Cb cap]
+8.8 +3.8 71 +8  1025.8  1.2  759  296    +10.8       
18 19.11.18 тихо ()   20000 м    9/9 600 м кучево-дожд. 
[Cb cap]
+6.5 +2.6 76 +7  1026.4  0.5  759  298    +10.8       
21 19.11.18 тихо ()   20000 м    9/9 600 м кучево-дожд. 
[Cb cap]
+5.3 +1.8 78 +5  1026.6  0.1  759  300           
00 20.11.18 тихо ()   20000 м    9/9 600 м кучево-дожд. 
[Cb cap]
+5.7 +2.2 78 +6  1026.3  -0.3  759  299           
06 20.11.18 тихо ()   20000 м    8/0 средняя 
[Ac trans]
+7.6 +3.6 76 +8  1027.4  0.8  760  297  +5.1         
09 20.11.18 тихо ()   20000 м    ясно 
+11.7 +2.1 52 +12  1025.1  -2  758  293           
12 20.11.18 160 (Ю) 20000 м    ясно 
+12.7 +2.1 48 +13  1023  -2  757  291           
15 20.11.18 тихо ()   20000 м    ясно 
+8.4 +2.7 67 +8  1022.7  -0.5  756  295    +13.4       
18 20.11.18 110 (В) 20000 м    ясно 
+4.2 -0.3 72 +4  1022.1  -0.9  756  300    +13.4       
21 20.11.18 тихо ()   20000 м    4/0 средняя 
[Ac trans]
+3 -1.2 74 +3  1021.6  -0.4  755  301           
00 21.11.18 тихо ()   20000 м    4/0 средняя 
[Ac trans]
+1.9 -1.8 76 +2  1018.4  -3.3  753  302           
06 21.11.18 160 (Ю) 20000 м    9/0 средняя 
[Ac trans]
+8.8 +5 77 +8  1014.5  -1.5  750  292  +1.7         
09 21.11.18 160 (Ю) 20000 м    9/0 средняя 
[Ac trans]
+11 +6.1 72 +11  1012.2  -2.2  749  289           
12 21.11.18 250 (З) 20000 м    9/9 600 м кучево-дожд. 
[Cb cap]
+10.2 +6.1 76 +10  1011.6  -0.6  748  290           
Время (UTC), дата Ветер
(°,м/с) 
Видим.   Явления Облачность Т
(°С)
Тd
(°С)
f(%) Тe
(°С)
Pmin
(гПа)
dP
(гПа)
Po
(мм)
O2
(г/м3)
Тmin Tmax R s Состояние
почвы

Для получения пояснительной информации подведите курсор к названию столбца.

ПОГОДА в Чагыле - архив

Всё, что Вы хотите узнать о погоде в Чагыле - удобно и подробно!

Выберите нужную дату (начиная с 1 января 2015* года) и нажмите кнопку "Найти".
Будут отображены архивные сводки погоды по пункту Чагыл, начиная с указанной даты.


Отображать данные в формате CSV (для использования в таблицах Excel)


Внимание! Наш архив погоды предназначен исключительно для личного некоммерческого использования в познавательных целях. Если Вам необходимы официальные справки о состоянии погоды (для производственных, юридических, коммерческих и т.п. целей), обращайтесь в органы Росгидромета.

*Примечание: данная дата относится к архиву по метеостанциям СССР (Россия, СНГ, Балтия).
Архив по метеостанциям Зарубежной Европы и Азии (кроме Китая) хранится 10 дней, по другим регионам земного шара (Китай, Африка, Америка, Австралия, Океания) - 1 день.

Чагыл - район местоположения метеостанции


Название, широта, долгота, высота метеостанции:
Чагыл 40.8°ш. 55.3°д. 115 м над ур. моря [Туркменистан]

Дополнительная информация

В oтличие oт бoльшинства пoгoдных сайтoв мы публикуем пoдрoбную метеoинфoрмацию в детальнoм прoфессиoнальнoм фoрмате.

Характеристики температуры и влажнoсти вoздуха измеряются на высoте 2 м в тени вдали oт зданий и деревьев.
Скoрoсть ветра измеряется на высoте 10 м (на урoвне рoста челoвека скoрoсть ветра ниже в 1.5-2 раза). Если метеoстанция нахoдится в гoрoде или в лесу, тo скoрoсть ветра занижена на 2-4 м/с пo сравнению с oткрытым местoм. Скoрoсть ветра над акватoриями крупных рек и oзёр, а также на вершинах хoлмoв на 2-5 м/с выше, чем в oбычных услoвиях.
Атмoсфернoе давление в разных тoчках местнoсти мoжет значительнo oтличаться oт давления на метеoстанции, в зависимoсти oт услoвий рельефа (при пoдъёме на 10 м давление пoнижается примернo на 1 мм рт.ст.).